CAPE
0 0 0 0 0 35 83 149 75 178 279 392 600 599 626 641 703 721 713 682 794 669 590 657 730 805 790 580 552 553 569 326 283 213 227 406 250 216 102 292 374 441 594
1 0 0 19 45 103 293 389 98 137 198 407 375 525 604 772 729 661 664 662 627 567 737 716 631 570 578 536 522 667 574 510 389 381 202 288 333 306 128 96 122 290 433
80 58 18 63 137 152 186 247 257 183 188 307 345 417 462 478 326 425 563 634 631 733 719 780 808 704 592 653 644 592 620 683 553 404 432 237 299 191 144 22 161 318 361
249 264 194 184 301 363 295 260 250 422 433 454 353 414 595 508 448 481 548 590 735 866 875 952 855 810 883 772 633 628 564 506 495 525 504 434 349 322 208 212 161 248 267
417 487 457 333 314 367 314 341 343 369 368 463 482 329 525 731 646 682 701 821 897 854 853 879 973 1064 1046 933 877 813 666 564 475 459 388 367 336 341 319 359 337 259 181
656 686 644 494 309 384 621 673 548 473 533 400 396 533 471 483 421 411 639 743 875 889 864 918 832 759 775 759 705 692 765 703 528 471 497 418 370 287 238 278 286 242 253
743 793 769 660 463 379 575 726 517 540 434 522 388 201 99 0 0 32 259 470 771 722 695 650 578 602 583 635 636 525 459 406 470 643 611 535 431 318 234 270 176 167 257
446 614 1004 946 763 552 596 764 542 361 337 336 303 143 58 178 55 209 486 801 591 410 232 178 338 470 584 491 427 399 364 445 480 288 336 509 495 513 310 407 380 281 163
606 167 791 1143 988 875 543 529 322 78 429 589 695 663 604 675 611 529 581 559 501 492 512 403 423 427 398 104 281 253 264 315 314 172 161 179 178 192 289 283 332 259 299
621 522 297 980 1152 1162 969 759 369 0 35 677 933 803 809 686 307 275 180 241 143 89 156 274 251 292 52 11 73 40 18 41 22 0 32 87 59 122 30 143 502 416 432
1082 994 968 954 1048 1182 1045 670 484 261 537 808 668 319 205 80 12 0 0 12 12 27 8 0 37 21 3 0 0 0 0 1 0 0 0 0 0 0 62 19 38 227 324
1102 1233 1232 1080 1121 1096 1124 1053 970 939 887 618 264 71 6 0 0 0 0 0 1 37 39 85 70 28 3 0 0 0 0 0 0 0 0 0 0 0 1 1 0 2 1
1083 1260 1345 1298 1305 1252 1292 1114 1222 1088 656 135 39 1 0 0 0 0 0 0 0 75 74 10 1 0 0 0 0 0 0 0 0 0 0 0 2 1 0 0 0 0 0
1331 1333 1396 1440 1504 1513 1503 1388 1047 353 130 15 40 75 99 16 0 0 0 0 0 0 0 0 0 0 0 0 0 0 0 0 0 0 0 1 11 16 10 3 2 0 0
1482 1517 1610 1682 1721 1607 1292 812 343 185 161 123 163 238 151 9 0 0 0 0 0 0 0 0 0 0 0 0 0 0 0 0 0 0 0 0 23 24 15 7 1 0 0
1400 1418 1512 1615 1512 1227 815 269 0 19 0 1 48 199 12 0 0 0 0 0 0 0 0 0 0 0 0 0 0 0 0 0 0 0 0 20 33 36 15 2 0 0 0
1310 1293 1213 1298 1145 994 393 230 251 12 0 0 0 0 0 0 0 0 0 0 0 0 0 0 0 0 0 0 0 0 9 16 6 22 7 2 22 4 1 0 0 0 0
967 1052 1271 1078 650 179 298 409 461 310 333 0 0 0 0 0 0 0 0 0 0 0 0 0 0 0 2 3 8 8 5 9 7 2 2 0 2 0 0 0 0 0 1
1042 1095 930 336 234 325 286 48 12 0 0 0 0 0 0 0 0 0 0 0 0 0 0 0 0 0 1 2 0 0 0 1 0 0 0 1 1 1 1 1 1 1 1
767 501 265 292 250 110 5 0 0 0 0 0 0 0 0 0 0 0 0 0 0 0 0 0 0 0 0 1 0 1 0 0 0 0 1 1 1 1 1 1 1 1 2
316 288 318 177 58 0 0 0 0 0 0 0 0 0 0 0 0 0 0 0 0 0 0 0 0 0 0 0 1 0 0 0 1 1 1 1 1 1 1 1 1 2 1
335 204 46 14 0 0 0 0 0 0 0 0 0 0 0 0 0 0 0 0 0 0 0 0 0 0 0 0 1 1 1 1 1 1 1 1 1 1 1 1 1 1 0
250 237 101 1 0 0 0 0 0 0 0 0 0 0 0 0 0 0 0 0 0 0 0 0 0 0 0 0 0 0 1 0 0 0 1 1 1 0 0 1 1 0 0
120 206 212 61 0 0 0 0 0 0 0 0 0 0 0 0 0 0 0 0 0 0 0 0 0 0 0 0 0 0 0 0 0 0 0 1 0 0 0 0 0 0 0
16 12 53 60 21 0 0 0 0 0 0 0 0 0 0 0 0 0 0 0 0 0 0 0 0 0 0 0 0 0 0 0 0 0 0 0 0 0 0 0 0 0 0
37 48 73 80 38 0 0 0 0 0 0 0 0 0 0 0 0 0 0 0 0 0 0 0 0 0 0 0 0 0 0 0 0 0 0 0 0 0 0 0 0 0 0
CIN
-0 -0 -0 -0 -0 -127 -84 -75 -84 -88 -69 -57 -56 -56 -64 -71 -62 -62 -42 -37 -28 -29 -33 -29 -25 -34 -26 -37 -45 -52 -47 -61 -32 -52 -84 -92 -104 -110 -140 -150 -147 -137 -130
-304 -0 -0 -204 -149 -106 -80 -74 -106 -80 -81 -53 -59 -60 -59 -91 -86 -51 -35 -36 -33 -29 -23 -24 -24 -33 -31 -34 -38 -27 -31 -42 -33 -21 -63 -57 -63 -97 -136 -139 -152 -165 -147
-240 -213 -208 -182 -157 -140 -99 -82 -84 -87 -82 -82 -74 -66 -62 -66 -81 -56 -42 -38 -28 -33 -27 -23 -21 -25 -30 -35 -37 -31 -35 -30 -36 -33 -30 -69 -63 -96 -105 -161 -120 -119 -132
-229 -186 -169 -173 -147 -122 -106 -100 -88 -73 -61 -58 -65 -63 -59 -55 -47 -45 -43 -39 -34 -31 -28 -28 -35 -34 -33 -32 -38 -33 -38 -35 -37 -33 -32 -42 -62 -72 -107 -78 -84 -116 -102
-188 -173 -164 -175 -160 -132 -112 -104 -92 -76 -75 -61 -49 -56 -46 -44 -39 -36 -40 -33 -31 -34 -36 -34 -34 -29 -26 -28 -28 -26 -24 -28 -33 -31 -35 -42 -48 -51 -43 -43 -48 -73 -124
-200 -168 -168 -148 -159 -147 -117 -99 -81 -66 -69 -72 -61 -42 -49 -60 -70 -78 -26 -18 -25 -26 -28 -28 -34 -37 -41 -42 -45 -46 -30 -20 -24 -26 -24 -24 -37 -45 -50 -40 -42 -46 -46
-135 -168 -130 -132 -139 -136 -104 -73 -61 -64 -58 -51 -63 -73 -93 -0 -0 -82 -95 -50 -33 -30 -38 -42 -47 -43 -52 -50 -50 -73 -77 -73 -53 -23 -18 -22 -26 -45 -44 -31 -45 -50 -42
-173 -146 -103 -109 -103 -120 -107 -64 -31 -41 -55 -39 -49 -58 -152 -123 -183 -117 -69 -35 -47 -58 -77 -81 -64 -52 -37 -48 -61 -67 -73 -61 -49 -64 -46 -38 -41 -37 -57 -36 -32 -41 -83
-114 -162 -145 -92 -66 -93 -61 -62 -64 -116 -45 -63 -46 -70 -78 -55 -45 -45 -48 -42 -45 -39 -39 -46 -40 -37 -35 -77 -44 -51 -62 -64 -52 -65 -67 -73 -74 -72 -59 -49 -40 -43 -30
-177 -166 -79 -141 -67 -62 -58 -55 -101 -0 -124 -72 -35 -46 -39 -34 -64 -65 -86 -58 -67 -66 -45 -34 -41 -36 -94 -144 -69 -109 -167 -83 -106 -0 -88 -64 -91 -80 -116 -66 -21 -18 -7
-199 -166 -136 -135 -79 -66 -60 -97 -83 -120 -94 -38 -44 -75 -81 -111 -99 -0 -0 -96 -154 -118 -83 -2 -87 -101 -24 -0 -0 -0 -0 -0 -0 -0 -0 -0 -0 -0 -59 -40 -60 -23 -12
-179 -134 -105 -91 -65 -64 -54 -63 -66 -51 -33 -47 -69 -100 -62 -0 -0 -0 -0 -0 -21 -174 -161 -115 -125 -117 -30 -0 -0 -0 -0 -0 -0 -0 -0 -0 -0 -0 -0 -0 -0 -29 -38
-131 -104 -81 -81 -72 -68 -55 -46 -45 -41 -43 -94 -144 -8 -0 -0 -0 -0 -0 -0 -0 -146 -146 -14 -46 -0 -0 -0 -0 -0 -0 -0 -0 -0 -0 -0 -29 -20 -0 -0 -0 -0 -0
-102 -89 -89 -67 -45 -42 -36 -30 -36 -95 -143 -250 -213 -171 -143 -227 -0 -0 -0 -0 -0 -0 -0 -0 -0 -0 -0 -0 -0 -0 -0 -0 -0 -0 -0 -8 -28 -39 -29 -24 -19 -22 -0
-78 -79 -66 -54 -39 -36 -42 -64 -125 -205 -199 -208 -182 -122 -130 -241 -0 -0 -0 -0 -0 -0 -0 -0 -0 -0 -0 -0 -0 -0 -0 -0 -0 -0 -0 -0 -20 -31 -29 -35 -25 -0 -17
-57 -61 -61 -48 -38 -44 -67 -184 -0 -106 -0 -148 -342 -179 -48 -0 -0 -0 -0 -0 -0 -0 -0 -0 -0 -0 -0 -0 -0 -0 -0 -0 -0 -0 -0 -3 -5 -17 -27 -45 -0 -0 -7
-58 -78 -74 -52 -54 -65 -151 -179 -161 -189 -0 -0 -0 -0 -0 -0 -0 -0 -0 -0 -0 -0 -0 -0 -0 -0 -0 -0 -0 -0 -3 -7 -16 -12 -29 -35 -20 -46 -45 -19 -0 -0 -0
-69 -81 -61 -68 -92 -150 -135 -80 -93 -128 -80 -0 -0 -0 -0 -0 -0 -0 -0 -0 -0 -0 -0 -0 -0 -0 -0 -21 -17 -13 -21 -23 -27 -36 -42 -41 -72 -0 -0 -0 -0 -0 -0
-65 -56 -76 -133 -139 -100 -122 -90 -128 -0 -0 -0 -0 -0 -0 -0 -0 -0 -0 -0 -0 -0 -0 -0 -0 -0 -10 -26 -8 -0 -0 -0 -0 -0 -0 -0 -0 -0 -0 -0 -0 -0 -0
-99 -100 -126 -118 -139 -191 -133 -0 -0 -0 -0 -0 -0 -0 -0 -0 -0 -0 -0 -0 -0 -0 -0 -0 -0 -0 -0 -0 -0 -0 -0 -0 -0 -0 -0 -0 -0 -0 -0 -0 -0 -0 -0
-191 -185 -150 -155 -199 -0 -0 -0 -0 -0 -0 -0 -0 -0 -0 -0 -0 -0 -0 -0 -0 -0 -0 -0 -0 -0 -0 -0 -0 -0 -0 -0 -0 -0 -0 -0 -0 -0 -0 -0 -0 -0 -0
-192 -250 -288 -193 -0 -0 -0 -0 -0 -0 -0 -0 -0 -0 -0 -0 -0 -0 -0 -0 -0 -0 -0 -0 -0 -0 -0 -0 -0 -0 -0 -0 -0 -0 -0 -0 -0 -0 -0 -0 -0 -0 -0
-151 -173 -246 -24 -0 -0 -0 -0 -0 -0 -0 -0 -0 -0 -0 -0 -0 -0 -0 -0 -0 -0 -0 -0 -0 -0 -0 -0 -0 -0 -0 -0 -0 -0 -0 -0 -0 -0 -0 -0 -0 -0 -0
-233 -202 -193 -253 -0 -0 -0 -0 -0 -0 -0 -0 -0 -0 -0 -0 -0 -0 -0 -0 -0 -0 -0 -0 -0 -0 -0 -0 -0 -0 -0 -0 -0 -0 -0 -0 -0 -0 -0 -0 -0 -0 -0
-267 -265 -224 -205 -251 -0 -0 -0 -0 -0 -0 -0 -0 -0 -0 -0 -0 -0 -0 -0 -0 -0 -0 -0 -0 -0 -0 -0 -0 -0 -0 -0 -0 -0 -0 -0 -0 -0 -0 -0 -0 -0 -0
-163 -179 -202 -163 -202 -0 -0 -0 -0 -0 -0 -0 -0 -0 -0 -0 -0 -0 -0 -0 -0 -0 -0 -0 -0 -0 -0 -0 -0 -0 -0 -0 -0 -0 -0 -0 -0 -0 -0 -0 -0 -0 -0
Wind_Speed
12 15 17 18 25 17 5 5 7 19 15 20 24 26 28 28 13 15 21 20 18 20 20 23 26 25 23 26 19 13 14 18 28 28 24 23 18 11 11 15 15 12 8
8 13 18 16 18 24 19 10 25 26 20 18 21 25 27 24 10 15 23 23 22 24 25 23 25 23 25 26 23 22 21 18 19 31 24 22 18 21 19 16 15 16 10
6 6 10 15 13 23 24 29 26 23 25 24 25 25 23 23 18 23 28 29 26 26 27 27 28 26 26 23 22 23 22 21 19 19 22 21 22 22 22 20 21 17 11
8 6 5 11 15 19 13 6 6 22 29 28 31 30 24 25 27 26 27 29 28 27 26 26 28 28 29 29 25 25 24 23 22 23 24 24 24 24 22 23 21 18 14
9 7 6 5 7 7 5 6 4 4 7 27 29 27 29 28 27 27 28 28 27 26 28 28 28 28 27 26 27 28 26 27 27 27 28 26 25 24 23 23 23 24 22
8 9 9 8 13 12 7 6 8 6 9 10 16 21 23 24 26 31 34 32 26 25 25 27 28 29 30 30 28 25 24 27 32 31 30 29 26 25 26 26 25 25 27
10 13 11 6 15 15 5 11 11 10 14 13 14 26 31 31 33 32 34 33 24 22 23 25 27 27 28 29 30 29 28 26 23 27 31 30 31 28 27 27 26 23 23
6 16 12 8 12 7 5 9 15 16 22 19 11 5 12 15 13 17 22 22 19 20 22 20 23 30 31 30 31 31 31 29 27 27 24 26 28 30 26 27 28 27 27
9 11 13 30 13 8 3 11 10 15 22 19 13 5 7 10 5 2 5 8 9 13 18 15 14 24 29 28 29 31 32 32 29 27 25 27 30 32 28 27 28 28 31
11 16 25 23 15 12 8 5 3 12 15 26 4 5 4 4 7 7 6 6 7 9 12 14 14 19 23 24 28 30 33 34 34 33 31 30 29 31 28 23 25 27 28
9 16 23 22 23 17 7 9 8 11 13 7 5 9 10 12 14 16 14 12 12 16 16 16 17 20 22 23 24 26 28 30 33 33 33 31 30 28 26 24 22 22 24
9 12 18 19 15 9 7 5 6 5 5 5 7 11 13 14 16 19 18 13 15 16 19 21 20 20 21 23 25 26 28 30 30 30 30 30 29 28 26 25 23 21 22
4 4 5 4 4 4 4 3 4 5 5 7 8 9 12 13 16 18 19 19 21 21 22 22 22 22 24 25 26 28 28 28 28 27 27 26 25 24 23 22 22 20 20
6 5 3 2 1 1 2 2 4 4 5 7 10 12 15 15 14 16 19 20 21 22 23 24 23 23 22 24 28 28 27 26 25 25 23 22 22 21 22 22 23 23 24
8 6 4 2 2 1 3 5 5 6 8 9 11 13 13 14 13 13 15 17 19 21 23 23 23 23 25 28 29 29 27 24 21 19 18 17 15 17 19 21 23 25 26
11 10 8 4 2 1 2 6 11 11 12 14 14 14 14 14 14 13 15 17 19 21 23 26 26 22 21 23 26 29 28 26 21 16 12 12 13 16 18 20 22 23 23
12 10 8 4 2 1 2 3 7 12 15 17 19 16 15 14 11 12 14 18 20 21 25 28 25 22 21 24 23 23 24 25 22 19 17 17 19 20 19 21 21 20 20
14 7 5 3 3 2 2 5 8 11 14 16 17 17 16 13 12 13 16 19 24 25 26 28 23 20 22 23 24 24 25 25 23 22 21 20 20 20 22 21 19 17 16
10 6 5 4 3 4 5 5 7 9 12 15 17 19 19 16 15 17 18 21 25 29 28 26 23 21 22 23 22 22 22 22 21 21 20 20 19 19 19 19 17 15 14
7 7 5 3 3 3 5 4 5 8 12 14 18 19 18 17 16 15 14 18 21 24 23 23 24 22 21 21 19 18 18 19 20 19 18 17 17 15 16 15 14 13 12
8 7 7 7 5 5 4 6 8 10 13 16 17 17 17 19 19 16 18 21 19 19 20 22 21 20 19 20 21 19 18 20 20 19 17 16 15 14 12 11 11 11 9
5 4 10 9 7 6 5 9 10 12 14 16 18 20 20 20 20 21 22 23 22 19 20 21 21 21 20 20 19 19 18 18 18 18 17 15 14 13 11 11 9 9 8
4 10 16 13 9 7 6 8 10 12 14 17 19 21 22 21 22 23 24 23 21 20 20 20 20 20 19 19 19 19 19 18 17 16 15 15 14 13 11 12 11 11 10
3 7 14 16 12 10 8 8 10 12 14 17 19 22 23 23 23 24 22 20 20 19 19 19 19 20 19 18 18 18 17 17 16 16 16 16 15 14 13 14 13 12 10
14 15 17 17 17 15 12 11 12 14 16 19 21 23 24 24 24 23 20 19 19 17 16 16 16 17 17 17 17 17 17 17 18 18 18 18 17 16 15 14 13 11 10
19 25 24 21 18 19 16 15 17 17 19 21 23 24 24 24 24 22 19 18 18 16 15 14 14 14 14 14 14 14 14 15 15 15 15 15 14 13 12 12 12 12 11
Wind_Direction
159 159 158 160 169 157 149 282 280 261 271 267 260 260 259 266 292 291 285 290 299 296 300 287 273 284 292 280 315 336 331 317 287 291 313 317 330 345 342 327 328 336 325
171 161 165 161 162 170 164 153 248 245 263 274 276 272 272 282 291 289 280 284 292 288 286 293 293 298 294 295 303 306 311 318 318 288 317 319 325 320 325 326 328 331 332
209 207 171 169 168 175 179 193 253 262 259 264 268 274 283 284 289 280 277 278 286 288 288 285 285 292 296 301 305 303 306 311 315 317 317 323 320 321 318 316 319 329 336
240 244 217 176 173 174 173 178 176 245 251 257 253 260 281 281 277 281 281 279 283 288 292 292 291 291 291 292 299 302 304 306 309 310 310 313 316 316 316 312 314 320 324
200 233 210 209 187 185 217 259 205 270 288 267 264 271 269 277 280 281 281 283 288 292 289 289 292 294 295 298 296 296 300 300 302 303 304 307 310 312 313 314 311 311 315
234 212 249 264 169 176 249 260 278 280 292 298 292 286 286 288 286 274 261 272 292 297 297 295 295 293 292 293 297 302 304 301 296 298 301 303 306 307 307 308 310 310 308
248 254 254 238 168 169 250 283 284 287 291 294 298 287 278 282 274 277 270 267 297 305 306 303 300 301 299 298 296 298 302 303 303 303 299 301 301 303 307 305 305 306 307
163 267 207 207 173 174 181 285 286 296 296 299 310 170 168 188 181 204 220 303 312 312 312 316 311 298 294 296 297 298 301 304 305 304 303 303 303 302 302 304 304 305 306
150 170 236 195 174 178 243 291 303 300 295 307 321 127 150 171 165 152 355 339 334 327 322 327 326 310 296 298 300 302 304 306 309 309 307 303 301 297 300 302 300 300 300
158 155 199 185 177 168 158 144 96 335 299 236 40 66 76 48 5 8 14 6 355 348 342 335 334 322 311 311 307 307 306 305 307 307 310 310 308 303 302 297 299 298 299
157 162 173 173 175 167 141 142 140 146 152 117 70 357 355 349 342 337 346 349 349 341 340 338 333 326 321 319 320 318 316 314 310 309 308 310 310 311 311 309 304 298 299
155 156 164 164 152 137 127 108 104 81 73 51 10 346 339 340 339 335 341 354 347 340 335 332 331 329 326 323 322 322 320 318 317 314 311 311 311 311 313 315 318 315 310
176 164 154 144 132 127 114 84 57 48 35 11 2 354 345 346 345 344 343 344 342 338 335 333 331 328 324 322 321 319 319 320 319 317 315 314 315 316 317 317 318 318 318
251 249 246 185 221 293 351 23 17 15 7 360 351 343 339 343 346 344 343 342 341 341 338 335 332 329 327 323 319 319 319 319 317 316 317 318 318 318 318 317 316 317 314
253 253 235 225 251 276 326 328 341 345 350 352 347 343 344 344 349 352 352 350 347 345 341 341 338 332 327 323 321 322 323 322 319 318 315 316 316 320 320 319 316 315 314
252 254 255 250 242 258 319 321 317 323 330 335 340 342 346 346 351 355 354 352 350 347 343 340 337 336 334 333 330 327 327 328 328 326 321 320 321 321 322 321 320 318 317
250 254 258 245 225 215 318 338 330 321 325 325 324 338 344 350 4 1 357 350 347 346 340 338 339 339 337 335 334 334 334 334 335 333 330 326 322 321 322 321 320 319 318
253 244 232 230 258 282 333 335 331 330 322 322 333 342 351 10 12 4 355 347 339 338 337 336 340 343 339 337 335 333 330 330 332 331 328 325 323 321 319 318 319 320 321
253 245 242 250 255 287 307 339 346 345 334 329 336 340 348 357 358 351 347 342 337 333 336 336 339 342 341 339 339 339 337 335 334 333 332 330 328 327 324 322 322 323 324
256 255 246 236 254 275 298 333 353 346 339 340 337 345 354 355 356 357 359 352 347 345 345 342 338 339 341 343 345 347 346 343 339 340 342 341 340 339 333 330 329 328 329
148 250 251 253 257 271 292 312 330 335 340 338 343 353 360 352 355 360 356 351 355 355 352 347 347 349 349 345 343 347 348 343 341 343 347 348 348 349 352 351 349 343 347
173 211 244 249 257 271 290 299 314 326 332 336 339 343 351 352 352 351 350 349 352 359 358 354 351 351 352 352 352 353 354 353 350 349 354 358 2 6 19 21 20 22 35
198 235 240 246 254 268 292 304 315 324 331 333 335 337 342 347 347 343 343 347 350 354 358 357 358 360 1 0 359 359 1 3 4 8 11 13 15 18 30 38 51 60 57
244 227 237 246 252 262 279 303 319 327 331 333 335 335 339 341 342 338 342 350 352 353 356 360 2 4 7 11 14 15 19 23 27 31 33 33 33 34 40 51 64 57 48
245 255 255 251 253 261 274 296 313 319 325 328 330 332 336 340 338 337 342 348 351 356 358 0 2 7 13 21 24 27 32 38 40 42 45 50 54 56 54 48 40 37 37
242 245 251 255 254 261 274 288 299 309 315 319 324 328 336 337 335 336 338 345 349 357 1 2 4 10 17 28 33 40 45 42 38 38 41 42 45 42 39 36 34 23 23